| time (UTC) | temp F | wind direction | speed MPH | gust MPH | rain 1hr in | rain 24hr in | rain mn in | humidity % | barometer mb |
| 20260508120032 | 61 | 110 | 4.0 | 9.0 | 0.00 | 0.00 | 0.00 | 54 | 1018.9 |
| 20260508114532 | 60 | 76 | 4.0 | 11.0 | 0.00 | 0.00 | 0.00 | 57 | 1019.1 |
| 20260508113032 | 60 | 54 | 3.0 | 8.0 | 0.00 | 0.00 | 0.00 | 58 | 1019.0 |
| 20260508111534 | 61 | 69 | 2.0 | 6.0 | 0.00 | 0.00 | 0.00 | 59 | 1019.0 |
| 20260508110033 | 61 | 96 | 4.0 | 11.0 | 0.00 | 0.00 | 0.00 | 58 | 1019.2 |
| 20260508104533 | 60 | 124 | 3.0 | 11.0 | 0.00 | 0.00 | 0.00 | 60 | 1019.2 |
| 20260508101534 | 58 | 87 | 4.0 | 9.0 | 0.00 | 0.00 | 0.00 | 64 | 1019.1 |
| 20260508100032 | 58 | 104 | 5.0 | 11.0 | 0.00 | 0.00 | 0.00 | 64 | 1019.3 |
| 20260508094534 | 58 | 95 | 5.0 | 11.0 | 0.00 | 0.00 | 0.00 | 65 | 1019.4 |
| 20260508093032 | 58 | 121 | 5.0 | 11.0 | 0.00 | 0.00 | 0.00 | 65 | 1019.3 |
| 20260508091533 | 57 | 73 | 3.0 | 8.0 | 0.00 | 0.00 | 0.00 | 69 | 1019.4 |
| 20260508090032 | 57 | 59 | 3.0 | 8.0 | 0.00 | 0.00 | 0.00 | 69 | 1019.6 |
| 20260508084532 | 56 | 90 | 4.0 | 9.0 | 0.00 | 0.00 | 0.00 | 70 | 1019.7 |
| 20260508083032 | 56 | 81 | 3.0 | 8.0 | 0.00 | 0.00 | 0.00 | 69 | 1019.7 |
| 20260508081533 | 54 | 103 | 3.0 | 9.0 | 0.00 | 0.00 | 0.00 | 73 | 1019.6 |
| 20260508080032 | 54 | 95 | 4.0 | 9.0 | 0.00 | 0.00 | 0.00 | 73 | 1019.6 |
| 20260508074533 | 53 | 99 | 4.0 | 11.0 | 0.00 | 0.00 | 0.00 | 75 | 1019.7 |
| 20260508073032 | 53 | 73 | 3.0 | 8.0 | 0.00 | 0.00 | 0.00 | 77 | 1019.5 |
| 20260508071531 | 52 | 98 | 3.0 | 8.0 | 0.00 | 0.00 | 0.00 | 79 | 1019.6 |
| 20260508070031 | 51 | 98 | 4.0 | 8.0 | 0.00 | 0.00 | 0.00 | 81 | 1019.4 |
| 20260508061531 | 49 | 76 | 2.0 | 6.0 | 0.00 | 0.00 | 0.00 | 86 | 1019.1 |
| 20260508060031 | 47 | 73 | 2.0 | 6.0 | 0.00 | 0.00 | 0.00 | 89 | 1019.1 |
| 20260508054531 | 47 | 103 | 1.0 | 4.0 | 0.00 | 0.00 | 0.00 | 89 | 1019.2 |
| 20260508053031 | 46 | 90 | 1.0 | 4.0 | 0.00 | 0.00 | 0.00 | 91 | 1018.8 |
| 20260508050032 | 44 | 86 | 0.0 | 2.0 | 0.00 | 0.00 | 0.00 | 97 | 1018.6 |
| 20260508044533 | 43 | 61 | 0.0 | 2.0 | 0.00 | 0.00 | 0.00 | 98 | 1018.7 |
| 20260508043031 | 42 | 81 | 0.0 | 2.0 | 0.00 | 0.00 | 0.00 | 98 | 1018.8 |
| 20260508041531 | 42 | 96 | 0.0 | 2.0 | 0.00 | 0.00 | 0.00 | 99 | 1018.7 |
| 20260508033032 | 42 | 101 | 0.0 | 2.0 | 0.00 | 0.00 | 0.00 | 98 | 1018.8 |
| 20260508031531 | 42 | 55 | 1.0 | 2.0 | 0.00 | 0.00 | 0.00 | 98 | 1018.5 |
| 20260508030032 | 42 | 54 | 0.0 | 4.0 | 0.00 | 0.00 | 0.00 | 98 | 1018.5 |
| 20260508024533 | 43 | 56 | 0.0 | 2.0 | 0.00 | 0.00 | 0.00 | 98 | 1018.3 |
| 20260508023032 | 43 | 32 | 0.0 | 2.0 | 0.00 | 0.00 | 0.00 | 98 | 1018.8 |
| 20260508021533 | 43 | 26 | 0.0 | 2.0 | 0.00 | 0.00 | 0.00 | 98 | 1018.4 |
| 20260508020031 | 43 | 64 | 0.0 | 2.0 | 0.00 | 0.00 | 0.00 | 98 | 1018.5 |
| 20260508014532 | 43 | 0 | 0.0 | 0.0 | 0.00 | 0.00 | 0.00 | 97 | 1018.6 |
| 20260508013032 | 43 | 0 | 0.0 | 2.0 | 0.00 | 0.00 | 0.00 | 97 | 1018.6 |
| 20260508011532 | 43 | 0 | 0.0 | 0.0 | 0.00 | 0.00 | 0.00 | 97 | 1018.7 |
| 20260508004532 | 44 | 64 | 0.0 | 2.0 | 0.00 | 0.00 | 0.00 | 97 | 1018.6 |
| 20260508001531 | 44 | 0 | 0.0 | 0.0 | 0.00 | 0.00 | 0.00 | 96 | 1018.8 |
| 20260508000031 | 45 | 105 | 0.0 | 2.0 | 0.00 | 0.00 | 0.00 | 96 | 1018.8 |
| 20260507234533 | 45 | 68 | 0.0 | 2.0 | 0.00 | 0.00 | 0.00 | 95 | 1018.7 |
| 20260507233031 | 45 | 88 | 1.0 | 2.0 | 0.00 | 0.00 | 0.00 | 95 | 1018.7 |
| 20260507230031 | 46 | 63 | 0.0 | 2.0 | 0.00 | 0.00 | 0.00 | 94 | 1018.8 |
| 20260507224531 | 46 | 68 | 0.0 | 2.0 | 0.00 | 0.00 | 0.00 | 93 | 1018.8 |
| 20260507223031 | 46 | 98 | 1.0 | 2.0 | 0.00 | 0.00 | 0.00 | 93 | 1018.8 |
| 20260507221531 | 46 | 93 | 1.0 | 2.0 | 0.00 | 0.00 | 0.00 | 92 | 1018.8 |
| 20260507214531 | 47 | 85 | 1.0 | 2.0 | 0.00 | 0.00 | 0.00 | 91 | 1018.5 |
| 20260507213032 | 47 | 91 | 1.0 | 4.0 | 0.00 | 0.00 | 0.00 | 90 | 1018.5 |
| 20260507210031 | 48 | 94 | 1.0 | 4.0 | 0.00 | 0.00 | 0.00 | 88 | 1018.5 |
| 20260507203032 | 49 | 95 | 1.0 | 4.0 | 0.00 | 0.00 | 0.00 | 86 | 1018.5 |
| 20260507201533 | 49 | 80 | 1.0 | 4.0 | 0.00 | 0.00 | 0.00 | 84 | 1018.0 |
| 20260507200031 | 50 | 58 | 1.0 | 4.0 | 0.00 | 0.00 | 0.00 | 82 | 1018.1 |
| 20260507193031 | 51 | 78 | 2.0 | 4.0 | 0.00 | 0.00 | 0.00 | 79 | 1017.9 |
| 20260507191532 | 51 | 50 | 2.0 | 6.0 | 0.00 | 0.00 | 0.00 | 77 | 1017.7 |
| 20260507190031 | 52 | 91 | 3.0 | 6.0 | 0.00 | 0.00 | 0.00 | 76 | 1017.8 |
| 20260507184531 | 53 | 76 | 2.0 | 6.0 | 0.00 | 0.00 | 0.00 | 74 | 1017.7 |
| 20260507181531 | 54 | 104 | 2.0 | 7.0 | 0.00 | 0.00 | 0.00 | 71 | 1017.2 |
| 20260507174533 | 56 | 107 | 3.0 | 11.0 | 0.00 | 0.00 | 0.00 | 68 | 1017.0 |
| 20260507173031 | 56 | 84 | 3.0 | 9.0 | 0.00 | 0.00 | 0.00 | 66 | 1017.1 |
| 20260507171531 | 57 | 56 | 3.0 | 9.0 | 0.00 | 0.00 | 0.00 | 65 | 1016.7 |
| 20260507170032 | 58 | 63 | 3.0 | 8.0 | 0.00 | 0.00 | 0.00 | 64 | 1016.8 |
| 20260507164532 | 58 | 81 | 4.0 | 11.0 | 0.00 | 0.00 | 0.00 | 64 | 1016.7 |
| 20260507163031 | 58 | 88 | 4.0 | 11.0 | 0.00 | 0.00 | 0.00 | 62 | 1016.7 |
| 20260507161533 | 59 | 82 | 4.0 | 9.0 | 0.00 | 0.00 | 0.00 | 62 | 1016.4 |
| 20260507160032 | 59 | 107 | 3.0 | 8.0 | 0.00 | 0.00 | 0.00 | 61 | 1016.4 |
| 20260507153033 | 60 | 105 | 3.0 | 9.0 | 0.00 | 0.00 | 0.00 | 56 | 1016.3 |
| 20260507150030 | 60 | 26 | 2.0 | 6.0 | 0.00 | 0.00 | 0.00 | 53 | 1016.2 |
| 20260507144532 | 59 | 8 | 3.0 | 8.0 | 0.00 | 0.00 | 0.00 | 55 | 1016.2 |
| 20260507141532 | 60 | 32 | 3.0 | 7.0 | 0.00 | 0.00 | 0.00 | 53 | 1016.3 |
| 20260507140030 | 62 | 9 | 2.0 | 7.0 | 0.00 | 0.00 | 0.00 | 54 | 1016.5 |
| 20260507134533 | 59 | 13 | 2.0 | 9.0 | 0.00 | 0.00 | 0.00 | 58 | 1016.5 |
| 20260507133030 | 60 | 63 | 3.0 | 8.0 | 0.00 | 0.00 | 0.00 | 59 | 1016.7 |
| 20260507131531 | 58 | 46 | 4.0 | 8.0 | 0.00 | 0.00 | 0.00 | 62 | 1016.6 |
| 20260507123030 | 59 | 15 | 3.0 | 9.0 | 0.00 | 0.00 | 0.00 | 57 | 1016.3 |
| 20260507121530 | 59 | 43 | 4.0 | 11.0 | 0.00 | 0.00 | 0.00 | 58 | 1016.1 |